2020-079J (46835 NORAD) Tracking and Keplerian Element Data

This shows tracking and keplerian element data for the satellite.

Feedback or suggestion? Click here.




ElementValue
Catalog46835
Name2020-079J
Epoch Orbit259
Epoch Day328.11280387
Epoch Year2020
RAAN40.0055
Inclination97.2662
Eccentricity0.0007801
Argument of Perigee204.3542
Mean Anonmoly216.8716
Mean Motion15.31816463
Decay Rate1.738E-05
L11 46835U 20079J 20328.11280387 .00001738 00000-0 59013-4 0 9990
L22 46835 97.2662 40.0055 0007801 204.3542 216.8716 15.31816463 2595

Live tracking and technical data element details for 2020-079J (NORAD 46835). 2020-079J can be tracked NOW for your location showing map with azimuth and elevation plus other details from your city location.

Track the satellite on the map from your city or location and see movement details for azimuth, elevation, latitude, longitude, range, height, and movement on the map or in text.







IsCatalogInMostPopularTable: catalog: 46835, numindb: 5
Update: records affected: 1



GetName: 46835 2020-079J

Hit Count: updated at: Tue, 24 Nov 2020 11:40:50 GMT